Current Weather Conditions: station LYUZ

sailwx.info

Wind from 330 at 6 knots

Air temperature 2.0° C
Dewpoint 2.0° C

Last reported at 2015-Feb-27 19:30 UTC.
Time now 2015-Feb-27 21:11 UTC

Location: N 43°54' E 019°42'.
View on Google Maps.

See reports from other nearby stations

  
Tides and Currents Weather Stations Pressure Air Temp Water Temp Dewpoint Dewpoint Depression Visibility Wind Speed Wind Dir Waves Ship Positions
date/time (UTC)wind fromknots sea level pressurealtimeterstation pressurevisibilityair tempwater tempwave heightnotes
2015-Feb-27 20:30 2.0
2015-Feb-27 20:00 330 4 2.0
2015-Feb-27 19:30 330 6 2.0
2015-Feb-27 19:00 330 3 2.0
2015-Feb-27 18:30 2.0
2015-Feb-27 18:00 320 3 0.1 2.0 Fog.
2015-Feb-27 17:30 340 4 0.1 2.0 Fog.
2015-Feb-27 17:00 330 3 0.1 2.0 Fog.
2015-Feb-27 16:30 320 3 0.1 2.0 Fog.
2015-Feb-27 16:00 300 3 0.1 2.0 Fog.
2015-Feb-27 15:30 330 3 0.1 2.0 Fog.
2015-Feb-27 15:00 060 3 0.1 2.0 Fog.
2015-Feb-27 14:30 060 3 0.1 2.0 Fog.
2015-Feb-27 14:00 0.1 2.0 Fog.
2015-Feb-27 13:30 0.1 2.0 Fog.
2015-Feb-27 13:00 080 3 0.1 2.0 Fog.
2015-Feb-27 12:30 090 4 0.1 2.0 Fog.
2015-Feb-27 12:00 080 4 0.1 2.0 Fog.
2015-Feb-27 11:30 050 3 0.1 2.0 Fog.
2015-Feb-27 11:00 080 3 0.1 2.0 Fog.
2015-Feb-27 10:30 110 3 0.1 2.0 Fog.
2015-Feb-27 10:00 110 3 0.1 1.0 Fog.
2015-Feb-27 09:30 100 3 0.1 1.0 Fog.
2015-Feb-27 09:00 090 4 0.1 1.0 Fog.
2015-Feb-27 08:30 110 5 0.1 1.0 Fog.
2015-Feb-27 08:00 090 4 0.1 1.0 Fog.
2015-Feb-27 07:30 090 4 0.1 1.0 Fog.
2015-Feb-27 07:00 100 4 0.1 1.0 Light drizzle. Fog.
2015-Feb-27 06:30 090 4 0.1 1.0 Light snow. Fog.
2015-Feb-27 06:00 100 4 0.1 1.0 Light snow. Fog.
2015-Feb-27 05:30 080 3 1.0
2015-Feb-27 05:00 070 3 1.0
2015-Feb-27 04:30 1.0
2015-Feb-27 04:00 090 5 1.0
2015-Feb-27 03:30 090 6 1.0
2015-Feb-27 03:00 100 7 1.0
2015-Feb-27 02:30 100 6 1.0
2015-Feb-27 02:00 090 5 1.0
2015-Feb-27 01:30 100 5 1.0
2015-Feb-27 01:00 110 5 1.0
2015-Feb-27 00:30 100 3 1.0
2015-Feb-27 00:00 100 3 1.0
2015-Feb-26 23:30 100 4 1.0
2015-Feb-26 23:00 110 4 1.0
2015-Feb-26 22:30 110 5 1.0
2015-Feb-26 22:00 100 3 1.0
2015-Feb-26 21:30 1.0
2015-Feb-26 21:00 120 3 2.0
2015-Feb-26 20:30 2.0
2015-Feb-26 20:00 2.0
2015-Feb-26 19:30 2.0
2015-Feb-26 19:00 2.0
2015-Feb-26 18:30 2.0
2015-Feb-26 18:00 070 2 1.6 1.0 Mist.
2015-Feb-26 17:30 2.7 1.0 Mist.
2015-Feb-26 17:00 2.7 1.0 Mist.
2015-Feb-26 16:30 340 4 1.6 1.0 Mist.
2015-Feb-26 16:00 2.2 Mist.
2015-Feb-26 15:30 0.5 1.0 Mist.
2015-Feb-26 15:00 0.1 1.0 Fog.
2015-Feb-26 14:30 0.1 1.0 Fog.
2015-Feb-26 14:00 300 4 0.1 1.0 Fog.
2015-Feb-26 13:30 290 5 0.1 1.0 Light snow. Fog.
2015-Feb-26 13:00 310 7 0.1 1.0 Light snow. Fog.
2015-Feb-26 12:30 300 5 0.1-0.0 Light snow. Fog.
2015-Feb-26 12:00 300 4 0.1-0.0 Light snow. Fog.
2015-Feb-26 11:30 300 5 0.2-0.0 Light snow. Fog.
2015-Feb-26 11:00 290 5 0.2-0.0 Light snow. Fog.
2015-Feb-26 10:30 300 6 0.2-0.0 Light snow. Freezing fog.
2015-Feb-26 10:00 300 8 0.2-0.0 Light snow. Freezing fog.
2015-Feb-26 09:30 290 8 0.2-0.0 Light snow. Freezing fog.
2015-Feb-26 09:00 290 9 0.2-0.0 Light snow. Freezing fog.
2015-Feb-26 08:30 290 8 0.2-0.0 Light snow. Freezing fog.
2015-Feb-26 08:00 290 8 0.1-0.0 Light snow. Freezing fog.
2015-Feb-26 07:30 290 6 0.3-0.0 Light snow. Freezing fog.
2015-Feb-26 07:00 290 7 0.5-0.0 Light snow. Mist.
2015-Feb-26 06:30 290 8 0.2-0.0 Freezing fog. Snow.
2015-Feb-26 06:00 290 8 0.2-0.0 Freezing fog. Snow.
2015-Feb-26 05:30 290 7 -0.0
2015-Feb-26 05:00 290 6 -0.0
2015-Feb-26 04:30 290 6 -0.0
2015-Feb-26 04:00 290 6 -0.0
2015-Feb-26 03:30 300 7 -0.0
2015-Feb-26 03:00 290 6 -0.0
2015-Feb-26 02:30 300 4 -0.0
2015-Feb-26 02:00 310 8 -0.0
2015-Feb-26 01:30 320 7 -0.0
2015-Feb-26 01:00 320 10 -0.0
2015-Feb-26 00:30 320 9 -0.0
2015-Feb-26 00:00 320 11 -0.0
2015-Feb-25 23:30 320 12 -0.0
2015-Feb-25 23:00 320 12 -0.0
2015-Feb-25 22:30 320 12 -0.0
2015-Feb-25 22:00 320 11 -0.0
2015-Feb-25 21:30 320 12 -0.0
2015-Feb-25 21:00 320 11 -0.0